When you browse on this site, cookies collect data to enhance your experience and personalize the content and advertising you see.
Visit our Privacy Policy to learn more. By continuing to use the site, you agree to this use of cookies and data.
  • în România
  • Lista ţărilor
  • Pe 7 zile
  • Temperatura apei
  • Hartă satelitară
  • Meteo pe hartă
  • Widget-uri
  • user-avatar
    Intrare

    Meteo pe oră la Ras al-Chajma

    Astăzi, 16 Iulie, Marţi

    Timp Temperatura Precipitaţii Vânt Presiune Umiditate
    00:00 +35°C° 0 mm 4 m/s 743 mmHg 65%
    01:00 +35°C° 0 mm 5 m/s 743 mmHg 64%
    02:00 +34°C° 0 mm 4 m/s 743 mmHg 66%
    03:00 +33°C° 0 mm 4 m/s 743 mmHg 69%
    04:00 +33°C° 0 mm 4 m/s 742 mmHg 73%
    05:00 +34°C° 0 mm 4 m/s 743 mmHg 70%
    06:00 +34°C° 0 mm 4 m/s 743 mmHg 66%
    07:00 +35°C° 0 mm 5 m/s 744 mmHg 63%
    08:00 +37°C° 0 mm 4 m/s 744 mmHg 54%
    09:00 +40°C° 0 mm 4 m/s 744 mmHg 45%
    10:00 +42°C° 0 mm 4 m/s 744 mmHg 39%
    11:00 +43°C° 0 mm 4 m/s 744 mmHg 36%
    12:00 +46°C° 0 mm 5 m/s 744 mmHg 33%
    13:00 +47°C° 0 mm 5 m/s 744 mmHg 30%
    14:00 +45°C° 0 mm 4 m/s 744 mmHg 34%
    15:00 +44°C° 0 mm 3 m/s 743 mmHg 38%
    16:00 +42°C° 0 mm 3 m/s 743 mmHg 44%
    17:00 +40°C° 0 mm 3 m/s 743 mmHg 48%
    18:00 +39°C° 0 mm 3 m/s 743 mmHg 51%
    19:00 +39°C° 0 mm 3 m/s 743 mmHg 54%
    20:00 +37°C° 0 mm 3 m/s 744 mmHg 60%
    21:00 +36°C° 0 mm 2 m/s 744 mmHg 66%
    22:00 +34°C° 0 mm 1 m/s 745 mmHg 72%
    23:00 +34°C° 0 mm 2 m/s 745 mmHg 73%

    Mâine, 17 Iulie, Miercuri

    Timp Temperatura Precipitaţii Vânt Presiune Umiditate
    00:00 +34°C° 0 mm 2 m/s 745 mmHg 74%
    01:00 +34°C° 0 mm 2 m/s 745 mmHg 76%
    02:00 +34°C° 0 mm 2 m/s 745 mmHg 75%
    03:00 +32°C° 0 mm 2 m/s 744 mmHg 74%
    04:00 +33°C° 0 mm 3 m/s 744 mmHg 74%
    05:00 +34°C° 0 mm 3 m/s 745 mmHg 74%
    06:00 +34°C° 0 mm 3 m/s 745 mmHg 74%
    07:00 +35°C° 0 mm 3 m/s 745 mmHg 74%
    08:00 +36°C° 0 mm 3 m/s 746 mmHg 66%
    09:00 +38°C° 0 mm 3 m/s 746 mmHg 58%
    10:00 +40°C° 0 mm 3 m/s 746 mmHg 50%
    11:00 +40°C° 0 mm 3 m/s 746 mmHg 49%
    12:00 +42°C° 0 mm 3 m/s 746 mmHg 47%
    13:00 +43°C° 0 mm 3 m/s 745 mmHg 46%
    14:00 +43°C° 0 mm 4 m/s 745 mmHg 46%
    15:00 +43°C° 0 mm 4 m/s 744 mmHg 46%
    16:00 +43°C° 0 mm 4 m/s 744 mmHg 46%
    17:00 +42°C° 0 mm 3 m/s 744 mmHg 49%
    18:00 +39°C° 0 mm 3 m/s 744 mmHg 52%
    19:00 +38°C° 0 mm 2 m/s 744 mmHg 56%
    20:00 +37°C° 0 mm 2 m/s 745 mmHg 60%
    21:00 +35°C° 0 mm 1 m/s 745 mmHg 64%
    22:00 +34°C° 0 mm 1 m/s 745 mmHg 67%
    23:00 +34°C° 0 mm 1 m/s 745 mmHg 68%

    Poimâine, 18 Iulie, Joi

    Timp Temperatura Precipitaţii Vânt Presiune Umiditate
    00:00 +34°C° 0 mm 1 m/s 745 mmHg 70%
    01:00 +34°C° 0 mm 2 m/s 745 mmHg 71%
    02:00 +33°C° 0 mm 1 m/s 745 mmHg 72%
    03:00 +33°C° 0 mm 1 m/s 744 mmHg 74%
    04:00 +32°C° 0 mm 1 m/s 744 mmHg 75%
    05:00 +33°C° 0 mm 1 m/s 745 mmHg 75%
    06:00 +34°C° 0 mm 2 m/s 745 mmHg 74%
    07:00 +34°C° 0 mm 2 m/s 746 mmHg 74%
    08:00 +36°C° 0 mm 2 m/s 746 mmHg 66%
    09:00 +38°C° 0 mm 2 m/s 746 mmHg 58%
    10:00 +40°C° 0 mm 2 m/s 746 mmHg 51%
    11:00 +40°C° 0 mm 3 m/s 746 mmHg 47%
    12:00 +42°C° 0 mm 3 m/s 746 mmHg 44%
    13:00 +43°C° 0 mm 3 m/s 745 mmHg 41%
    14:00 +43°C° 0 mm 4 m/s 745 mmHg 44%
    15:00 +42°C° 0 mm 4 m/s 744 mmHg 47%
    16:00 +41°C° 0 mm 4 m/s 744 mmHg 50%
    17:00 +40°C° 0 mm 3 m/s 744 mmHg 52%
    18:00 +39°C° 0 mm 2 m/s 744 mmHg 55%
    19:00 +37°C° 0 mm 1 m/s 744 mmHg 58%
    20:00 +36°C° 0 mm 1 m/s 744 mmHg 61%
    21:00 +35°C° 0 mm 1 m/s 745 mmHg 64%
    22:00 +34°C° 0 mm 1 m/s 745 mmHg 68%
    23:00 +33°C° 0 mm 1 m/s 745 mmHg 70%

    19 Iulie, Vineri

    Timp Temperatura Precipitaţii Vânt Presiune Umiditate
    00:00 +33°C° 0 mm 1 m/s 745 mmHg 71%
    01:00 +31°C° 0 mm 0 m/s 745 mmHg 73%
    02:00 +31°C° 0 mm 0 m/s 744 mmHg 74%
    03:00 +30°C° 0 mm 0 m/s 744 mmHg 75%
    04:00 +30°C° 0 mm 0 m/s 744 mmHg 76%
    05:00 +33°C° 0 mm 1 m/s 745 mmHg 74%
    06:00 +34°C° 0 mm 1 m/s 745 mmHg 72%
    07:00 +35°C° 0 mm 2 m/s 745 mmHg 70%
    08:00 +37°C° 0 mm 2 m/s 746 mmHg 63%
    09:00 +39°C° 0 mm 2 m/s 746 mmHg 55%
    10:00 +42°C° 0 mm 3 m/s 746 mmHg 48%
    11:00 +42°C° 0 mm 3 m/s 746 mmHg 47%
    12:00 +42°C° 0 mm 4 m/s 746 mmHg 45%
    13:00 +43°C° 0 mm 5 m/s 745 mmHg 44%
    14:00 +43°C° 0 mm 5 m/s 745 mmHg 41%
    15:00 +44°C° 0 mm 4 m/s 744 mmHg 38%
    16:00 +44°C° 0 mm 4 m/s 744 mmHg 35%
    17:00 +43°C° 0 mm 3 m/s 744 mmHg 40%
    18:00 +40°C° 0 mm 2 m/s 744 mmHg 44%
    19:00 +37°C° 0 mm 1 m/s 744 mmHg 49%
    20:00 +36°C° 0 mm 1 m/s 744 mmHg 54%
    21:00 +35°C° 0 mm 1 m/s 745 mmHg 58%
    22:00 +34°C° 0 mm 1 m/s 745 mmHg 63%
    23:00 +34°C° 0 mm 1 m/s 745 mmHg 61%

    20 Iulie, Sâmbătă

    Timp Temperatura Precipitaţii Vânt Presiune Umiditate
    00:00 +34°C° 0 mm 1 m/s 744 mmHg 58%
    01:00 +32°C° 0 mm 0 m/s 744 mmHg 56%
    02:00 +34°C° 0 mm 1 m/s 744 mmHg 57%
    03:00 +34°C° 0 mm 1 m/s 744 mmHg 59%
    04:00 +34°C° 0 mm 1 m/s 744 mmHg 60%
    05:00 +35°C° 0 mm 2 m/s 745 mmHg 60%
    06:00 +36°C° 0 mm 3 m/s 745 mmHg 61%
    07:00 +36°C° 0 mm 3 m/s 746 mmHg 61%
    08:00 +38°C° 0 mm 3 m/s 746 mmHg 52%
    09:00 +41°C° 0 mm 2 m/s 746 mmHg 43%
    10:00 +43°C° 0 mm 2 m/s 747 mmHg 34%
    11:00 +45°C° 0 mm 3 m/s 746 mmHg 34%
    12:00 +45°C° 0 mm 4 m/s 746 mmHg 34%
    13:00 +46°C° 0 mm 5 m/s 746 mmHg 33%
    14:00 +47°C° 0 mm 4 m/s 745 mmHg 31%
    15:00 +47°C° 0 mm 4 m/s 745 mmHg 29%
    16:00 +46°C° 0 mm 3 m/s 745 mmHg 27%
    17:00 +43°C° 0 mm 2 m/s 745 mmHg 31%
    18:00 +41°C° 0 mm 2 m/s 745 mmHg 34%
    19:00 +39°C° 0 mm 1 m/s 745 mmHg 38%
    20:00 +37°C° 0 mm 1 m/s 745 mmHg 41%
    21:00 +36°C° 0 mm 1 m/s 745 mmHg 45%
    22:00 +35°C° 0 mm 1 m/s 745 mmHg 48%
    23:00 +34°C° 0 mm 1 m/s 745 mmHg 51%

    21 Iulie, Duminică

    Timp Temperatura Precipitaţii Vânt Presiune Umiditate
    00:00 +34°C° 0 mm 1 m/s 745 mmHg 54%
    01:00 +34°C° 0 mm 2 m/s 745 mmHg 57%
    02:00 +34°C° 0 mm 2 m/s 744 mmHg 60%
    03:00 +34°C° 0 mm 2 m/s 744 mmHg 63%
    04:00 +34°C° 0 mm 2 m/s 744 mmHg 66%
    05:00 +34°C° 0 mm 3 m/s 745 mmHg 65%
    06:00 +35°C° 0 mm 3 m/s 745 mmHg 65%
    07:00 +35°C° 0 mm 4 m/s 745 mmHg 65%
    08:00 +37°C° 0 mm 3 m/s 745 mmHg 57%
    09:00 +39°C° 0 mm 3 m/s 746 mmHg 48%
    10:00 +41°C° 0 mm 2 m/s 746 mmHg 40%
    11:00 +43°C° 0 mm 3 m/s 745 mmHg 38%
    12:00 +44°C° 0 mm 3 m/s 745 mmHg 36%
    13:00 +45°C° 0 mm 4 m/s 744 mmHg 34%
    14:00 +45°C° 0 mm 4 m/s 744 mmHg 34%
    15:00 +44°C° 0 mm 3 m/s 744 mmHg 34%
    16:00 +44°C° 0 mm 3 m/s 743 mmHg 34%
    17:00 +42°C° 0 mm 2 m/s 743 mmHg 39%
    18:00 +40°C° 0 mm 2 m/s 743 mmHg 43%
    19:00 +39°C° 0 mm 2 m/s 743 mmHg 48%
    20:00 +36°C° 0 mm 1 m/s 743 mmHg 54%
    21:00 +35°C° 0 mm 1 m/s 744 mmHg 60%
    22:00 +34°C° 0 mm 1 m/s 744 mmHg 66%
    23:00 +35°C° 0 mm 2 m/s 744 mmHg 70%
    Arată mai mult